GFSNIL_sfc_thetae_099.txt.gz
Theta_e
322 319 317 321 322 320 321 324 322 320 320 321 324 323 326 328 325 326 327 327 327 325
323 321 320 320 321 323 324 324 325 325 323 323 323 324 322 324 324 326 327 328 328 326
322 323 323 324 324 325 325 324 324 325 324 324 324 324 325 325 326 325 326 326 326 325
323 323 323 324 325 324 325 325 324 324 324 325 325 326 326 326 325 324 325 326 325 325
323 323 322 323 324 326 325 326 325 324 322 323 324 325 325 325 324 324 324 325 325 324
324 324 323 323 325 325 325 324 324 324 324 324 325 325 325 325 325 325 325 325 324 321
324 324 324 325 325 326 326 324 323 325 325 326 323 323 324 323 324 324 324 324 320 319
324 325 325 324 325 324 324 324 324 323 323 323 323 322 323 322 320 320 319 319 309 295
324 324 324 324 324 323 323 323 323 322 322 322 309 292 295 303 311 302 299 296 292 291
324 323 323 323 322 322 322 321 307 301 298 294 293 291 292 292 292 290 289 288 288 287
324 323 323 321 312 303 299 295 293 291 290 288 289 289 288 288 287 286 285 285 285 285
323 316 307 301 296 293 291 289 288 289 288 287 287 287 287 286 285 283 283 284 285 284
302 298 294 291 289 289 287 287 286 286 286 286 286 287 287 286 285 283 282 283 283 283
293 291 290 288 287 286 285 284 283 283 284 284 285 285 286 286 285 285 284 283 282 282

GFSNIL_sfc_thetae_102.txt.gz
Theta_e
319 320 319 319 319 319 318 318 320 320 321 321 321 321 321 321 322 321 320 319 318 318
319 319 319 320 320 319 320 321 321 320 320 320 320 320 320 320 320 320 319 318 319 318
320 319 318 321 320 319 320 321 320 319 319 318 318 319 319 319 318 318 318 319 318 319
320 320 319 318 320 321 321 321 321 321 320 319 319 319 318 317 317 317 318 319 319 318
320 321 320 319 317 320 321 321 320 321 320 320 319 319 318 318 319 319 318 318 318 318
320 321 320 320 321 322 321 321 320 321 319 319 320 319 319 319 319 318 319 318 317 317
321 321 321 320 321 321 322 321 320 320 320 320 320 320 320 319 319 319 319 316 302 296
322 323 323 322 322 322 322 321 321 321 321 321 320 312 307 316 317 309 299 295 293 291
323 323 322 322 322 322 321 322 321 318 308 300 297 292 294 301 297 295 294 290 289 289
322 322 321 322 321 320 315 303 297 295 293 290 290 290 290 291 290 288 288 287 287 287
322 321 322 316 301 297 294 292 290 289 289 288 287 288 288 287 286 285 285 285 285 284
322 306 299 295 292 291 289 288 287 287 287 286 286 287 287 286 284 283 282 283 284 283
298 295 291 290 288 288 287 286 285 285 285 286 285 287 287 286 284 283 282 283 282 283
291 289 290 288 287 286 284 284 283 282 283 283 284 285 286 286 285 284 283 282 281 281

GFSNIL_sfc_thetae_105.txt.gz
Theta_e
318 318 319 318 318 318 318 318 318 318 319 320 320 319 319 318 318 318 318 316 317 316
317 318 318 319 318 318 318 319 317 316 317 319 320 319 318 318 317 318 318 318 318 317
317 319 319 319 318 318 318 318 317 316 316 318 319 319 319 318 318 317 318 318 317 317
316 318 318 319 318 318 319 318 318 317 317 318 318 319 318 318 317 316 316 316 316 316
317 316 315 318 318 319 318 319 319 319 318 318 317 317 316 315 317 315 314 314 315 315
318 316 314 315 317 317 318 318 320 319 318 317 318 317 316 316 316 315 315 316 315 310
317 317 316 316 315 315 318 318 317 319 319 319 318 318 317 318 317 317 307 301 297 294
317 316 317 316 316 318 318 318 318 317 319 318 314 307 310 314 311 300 295 293 292 291
318 318 317 316 316 316 316 317 312 301 300 297 294 291 295 299 295 293 291 289 289 289
319 318 318 318 318 317 304 298 295 292 291 289 289 290 290 290 290 288 288 287 286 286
319 319 318 310 299 295 293 291 289 288 288 287 287 288 288 288 286 285 284 284 284 283
319 302 298 294 292 291 289 287 287 287 286 286 286 287 286 285 284 283 282 283 283 283
297 294 291 289 288 287 286 285 285 285 286 286 286 287 286 285 284 282 281 282 283 284
291 289 288 287 287 285 284 283 282 282 283 283 284 285 286 286 284 282 281 281 281 282

GFSNIL_sfc_thetae_108.txt.gz
Theta_e
317 319 318 321 321 321 321 321 320 320 320 320 320 320 320 318 317 317 316 315 314 314
318 316 318 318 320 319 320 321 320 320 319 320 319 319 318 317 316 316 316 316 317 316
317 317 317 317 317 318 319 319 318 319 319 319 319 319 318 316 317 316 317 317 316 316
316 317 318 317 317 316 318 318 317 317 317 317 318 319 318 317 317 316 315 315 314 315
316 317 318 318 317 317 316 317 317 316 316 316 317 317 317 316 317 316 315 315 315 314
315 315 316 316 316 317 316 316 317 316 315 315 316 316 316 316 315 314 315 314 313 311
314 314 314 316 316 316 317 317 316 316 316 316 316 316 315 315 314 314 305 298 295 293
316 315 313 314 314 315 316 317 318 317 316 316 316 313 315 315 313 298 293 292 291 290
317 316 314 313 313 313 314 315 310 306 300 296 296 292 295 299 295 293 290 288 288 288
316 315 315 315 314 311 301 297 294 293 292 290 290 291 291 291 290 288 287 286 286 286
316 315 315 309 299 296 294 291 289 288 288 287 287 288 288 287 286 284 284 284 284 284
317 306 299 295 292 291 289 288 287 287 286 285 285 286 286 285 284 283 283 283 282 282
301 297 293 290 289 288 287 286 286 285 286 286 285 286 285 284 283 281 281 282 282 283
295 291 289 288 287 286 285 284 284 283 284 285 285 286 285 284 282 282 281 281 280 281

GFSNIL_sfc_thetae_111.txt.gz
Theta_e
319 319 320 319 319 321 321 323 322 322 323 324 321 319 319 318 317 317 316 315 314 314
319 319 319 320 322 322 323 322 321 321 321 322 321 320 319 318 317 317 317 317 315 315
318 318 318 319 319 320 321 321 320 320 320 321 320 320 320 318 317 316 316 316 315 315
317 317 316 316 318 319 319 320 319 319 319 319 318 319 318 317 317 315 315 315 315 315
317 317 316 315 315 318 317 318 318 318 318 318 317 317 316 315 316 315 314 314 314 313
317 317 316 316 316 316 317 317 317 317 316 316 317 317 317 316 315 315 315 314 313 306
316 316 316 316 315 314 315 316 316 316 316 316 317 317 316 316 314 310 301 297 294 293
316 315 315 314 315 316 315 315 315 315 315 315 315 313 313 313 309 297 292 291 290 290
315 313 313 313 313 315 315 314 313 309 305 301 299 293 298 301 297 293 290 288 288 288
314 312 311 312 312 311 304 301 297 295 294 291 292 292 293 292 291 289 288 287 286 286
314 312 312 309 302 296 295 293 291 289 289 288 289 289 289 287 286 285 285 285 285 285
314 308 301 296 293 292 290 289 287 287 287 286 286 287 287 286 284 282 281 282 282 283
305 300 295 292 290 289 288 286 286 285 285 286 285 286 286 285 283 281 280 281 282 283
299 296 292 290 289 288 286 285 285 284 285 284 285 285 285 285 282 281 280 280 279 280

GFSNIL_sfc_thetae_114.txt.gz
Theta_e
314 315 314 316 319 321 323 324 325 325 323 321 319 320 318 317 316 314 313 313 313 313
319 319 318 317 316 317 320 322 324 325 325 323 322 320 319 317 316 315 314 314 315 314
319 319 319 317 319 319 321 322 322 322 324 324 322 320 319 317 317 316 315 316 315 315
318 318 318 318 319 320 320 321 321 321 322 321 320 320 319 318 318 316 316 316 315 315
318 317 316 317 318 318 318 319 320 320 320 320 320 320 319 317 317 316 315 315 315 314
317 317 316 316 316 317 317 317 318 318 318 318 319 319 318 318 317 316 315 315 314 313
317 317 317 316 316 316 317 316 316 317 317 317 317 317 317 316 315 309 302 299 298 297
316 317 316 315 315 315 316 316 316 316 316 316 316 316 316 313 303 295 292 291 291 291
315 315 315 315 315 315 315 315 314 311 309 305 303 297 299 301 297 293 290 288 287 288
314 313 314 314 314 313 305 303 300 298 298 295 296 294 294 293 293 290 288 287 286 285
314 312 312 311 302 298 296 294 292 290 290 289 290 291 290 289 288 287 286 286 285 284
314 310 304 299 295 293 291 289 288 288 287 286 286 288 287 286 284 283 283 284 284 283
309 304 299 294 292 290 288 287 286 285 286 286 285 287 286 285 284 282 281 281 281 282
302 298 294 291 290 288 286 285 284 283 284 284 285 285 286 285 283 281 279 278 278 278

GFSNIL_sfc_thetae_117.txt.gz
Theta_e
326 325 325 325 326 325 324 324 325 323 323 319 318 315 317 319 319 320 321 321 320 319
323 321 321 321 323 325 325 326 325 324 323 323 318 319 319 320 319 321 320 319 319 318
324 323 322 322 322 322 323 324 324 325 324 322 320 319 318 318 320 318 318 317 317 317
321 321 321 321 322 324 324 325 324 324 324 322 320 319 318 318 317 315 315 315 314 315
321 320 319 320 321 323 322 323 323 322 322 322 322 320 318 316 316 315 314 315 315 315
320 319 319 320 320 321 321 320 320 320 320 320 322 320 319 317 316 316 315 315 315 315
319 318 318 319 318 320 320 317 318 318 318 319 319 319 319 318 317 316 316 315 314 313
319 319 318 317 318 318 318 318 318 317 316 317 317 317 317 313 303 298 294 293 293 293
318 318 317 316 316 316 316 316 315 313 311 308 305 296 296 300 297 293 290 288 287 288
317 316 316 316 316 314 309 306 302 300 300 296 296 294 293 292 292 289 288 286 286 285
316 315 315 315 306 301 300 298 295 292 292 291 291 291 290 289 288 286 286 285 285 284
316 313 310 303 298 295 293 291 289 289 288 287 287 288 288 287 285 284 283 284 284 283
315 309 303 297 293 292 289 287 286 286 286 286 286 287 287 286 285 282 281 281 282 282
308 302 297 293 291 288 287 286 285 284 284 285 286 286 286 285 283 281 279 279 279 280

GFSNIL_sfc_thetae_120.txt.gz
Theta_e
329 328 327 329 328 327 326 324 323 320 319 316 316 317 318 320 324 327 328 328 327 324
327 330 329 330 330 331 328 326 326 324 321 319 316 315 317 320 321 323 328 328 329 325
328 330 330 329 330 330 327 327 325 323 322 321 320 317 317 318 320 322 323 326 327 326
327 328 329 325 326 326 325 324 324 324 323 322 321 321 319 317 318 321 322 324 325 323
327 327 327 325 326 326 324 328 327 325 324 322 319 319 319 317 320 322 321 321 320 319
325 324 324 324 325 324 323 323 323 324 323 322 322 320 319 319 317 317 317 317 317 318
323 322 323 325 323 322 322 322 321 322 322 321 320 321 320 319 317 316 315 315 315 314
322 324 324 325 322 322 322 321 320 321 320 317 318 318 319 318 316 313 305 298 296 295
321 322 323 323 321 320 319 319 318 318 313 308 302 294 297 301 298 294 291 289 288 288
321 321 322 321 320 318 314 310 304 302 300 296 295 292 293 292 292 290 289 287 286 285
319 319 321 319 316 308 305 301 297 294 293 292 291 290 289 288 287 286 286 285 284 283
318 317 318 311 306 300 296 294 292 291 290 289 289 288 288 287 285 284 283 283 283 282
316 315 308 301 297 295 292 289 289 288 288 288 288 288 288 287 285 283 281 281 281 282
313 307 300 295 293 290 288 287 286 286 286 287 287 287 287 286 284 282 281 280 279 280

GFSNIL_sfc_thetae_126.txt.gz
Theta_e
329 330 330 329 328 328 328 327 326 326 326 326 325 324 324 323 323 322 321 322 321 321
327 328 329 330 329 329 329 326 326 323 322 322 322 322 322 322 322 321 321 322 322 321
326 327 328 328 328 328 328 327 325 322 321 320 320 320 320 321 321 320 319 321 321 321
324 325 326 327 328 329 329 327 325 321 319 318 317 318 318 319 320 320 318 321 321 320
324 324 325 326 327 327 328 328 325 323 320 318 317 317 317 317 319 319 319 319 319 319
321 322 322 325 325 327 327 327 326 324 320 318 317 316 316 317 318 318 319 319 319 318
319 321 322 325 324 324 325 324 326 325 323 320 318 316 316 316 317 317 318 319 320 319
311 321 323 323 323 323 323 322 323 323 323 323 319 317 316 316 316 315 315 315 315 313
308 316 321 321 321 321 321 321 320 320 317 311 308 294 301 311 315 314 313 312 300 299
304 310 319 320 320 319 318 314 308 305 302 298 296 293 294 294 295 293 293 295 293 288
299 303 315 320 319 314 309 304 299 296 295 292 291 291 290 289 288 287 286 287 287 287
295 296 302 311 311 305 299 296 293 292 291 289 288 289 289 288 287 285 285 285 285 286
294 294 298 306 304 300 295 291 290 289 289 288 287 289 289 288 286 282 281 282 282 284
293 293 296 303 298 293 290 288 287 286 287 287 287 287 288 287 285 282 281 280 280 281

GFSNIL_sfc_thetae_129.txt.gz
Theta_e
324 326 328 327 326 327 326 327 329 328 329 328 326 326 325 325 324 325 323 321 322 321
323 326 327 329 327 329 329 327 327 327 327 327 326 325 325 323 323 323 323 321 322 321
321 324 326 327 327 327 327 326 324 321 322 321 322 323 323 322 323 322 322 321 321 321
316 322 323 325 326 327 327 326 324 322 319 319 319 319 320 320 320 320 320 321 321 320
312 317 322 323 325 327 327 326 323 321 318 319 318 318 318 318 319 319 318 319 320 320
308 312 318 322 324 326 326 325 324 321 318 318 317 317 317 318 318 319 319 319 319 319
306 308 310 318 322 324 325 325 323 322 320 319 317 317 316 317 317 318 318 318 319 319
305 306 307 311 321 324 324 324 324 323 322 319 318 317 316 316 316 316 316 316 318 318
303 302 302 308 315 322 323 321 320 321 321 320 316 302 301 309 314 314 313 312 310 313
298 297 298 300 303 320 320 318 313 310 308 303 301 294 297 298 308 308 307 308 297 291
292 293 295 297 301 312 313 310 304 299 297 294 291 291 292 290 290 288 287 287 288 289
290 291 293 294 297 302 303 302 296 294 291 290 288 289 289 289 287 285 285 285 286 285
289 291 291 292 295 301 300 294 291 289 289 288 288 289 289 288 286 283 282 283 285 286
289 290 291 292 294 295 293 290 288 287 287 287 287 288 288 287 285 283 282 281 281 283

GFSNIL_sfc_thetae_132.txt.gz
Theta_e
320 321 323 326 324 326 326 327 330 330 330 329 328 327 326 326 325 325 322 322 322 323
314 319 321 324 325 327 327 327 328 329 329 328 326 326 325 325 324 324 324 323 321 322
311 313 318 323 325 325 327 327 326 327 327 327 326 325 324 324 324 323 324 324 322 321
308 310 313 320 321 324 327 326 325 325 325 324 324 324 323 323 323 322 322 323 321 321
308 308 308 310 317 324 325 326 325 323 322 321 320 320 320 320 320 320 320 320 320 320
305 305 305 306 310 315 323 325 325 323 321 319 318 318 318 318 318 318 319 319 319 319
302 302 303 303 305 311 317 323 324 322 321 319 317 317 317 318 318 317 318 319 319 319
299 300 299 299 301 303 308 320 324 323 321 319 317 316 316 316 316 316 316 316 317 318
294 294 295 296 297 300 305 311 323 322 320 318 316 304 301 310 315 314 314 313 313 313
291 291 292 293 295 297 300 303 315 319 320 317 314 299 299 299 312 311 311 311 305 300
289 289 290 292 293 294 296 300 311 311 308 305 296 294 296 295 296 292 289 289 289 292
287 288 289 290 291 292 294 296 302 301 298 296 290 290 290 292 289 286 285 286 286 286
287 288 288 289 290 292 293 296 293 290 293 291 288 289 290 290 287 285 284 285 285 286
286 287 288 289 290 291 293 291 288 286 287 288 288 288 289 289 287 285 283 283 283 285